Location: The Saddle
(36.8333°N, 80.3417°W)
Time: 16:38:17
(UTC-05:00)

Transit 4A - Visible Passes

Search period start: 30 January 2023 00:00
Search period end: 09 February 2023 00:00
Orbit: 871 x 973 km, 66.8° (Epoch: 30 January)

Date Brightness Start Highest point End Pass type
(mag) Time Alt. Az. Time Alt. Az. Time Alt. Az.
30 Jan 10.1 04:05:57 17° SE 04:05:57 17° SE 04:07:11 10° SE visible
30 Jan 9.6 05:49:32 15° SW 05:49:32 15° SW 05:51:06 10° SSW visible
30 Jan 8.2 18:59:42 10° SW 19:05:28 63° WNW 19:11:15 10° NNE visible
30 Jan 10.5 20:51:49 10° NW 20:52:59 11° NW 20:54:11 10° NNW visible
31 Jan 10.3 04:16:08 12° SSE 04:16:08 12° SSE 04:16:32 10° SSE visible
31 Jan 8.9 19:09:17 10° SW 19:14:46 41° WNW 19:20:16 10° NNE visible
01 Feb 9.5 19:19:12 10° WSW 19:24:09 28° NW 19:29:08 10° N visible
02 Feb 10.0 19:29:31 10° W 19:33:39 20° NW 19:37:48 10° N visible
03 Feb 10.3 19:40:23 10° WNW 19:43:14 14° NW 19:46:06 10° NNW visible
05 Feb 9.2 18:09:16 10° WSW 18:14:35 36° NW 18:19:56 10° NNE visible
06 Feb 9.8 18:19:18 10° WSW 18:24:00 25° NW 18:28:45 10° N visible
07 Feb 10.1 18:29:46 10° W 18:33:32 17° NW 18:37:19 10° N visible
08 Feb 10.3 18:40:59 10° WNW 18:43:09 12° NW 18:45:21 10° NNW visible
